Overview Statistics Trail Chart Weather Telemetry Raw packets
 

This is the latest recevied weather packets stored in our database for station/object WD7OO. If no packets are shown the sender has not sent any weather packets the latest 10 day(s).

<< 14 15 16 17 18 19 20 >>
Time Temp. Humidity Pressure Rain* Wind** Luminosity Snow
1788530352 26.11° C 91% 1016.7 hPa 0 mm - 194 W/m² -
1788530051 26.11° C 90% 1016 hPa 0 mm - 185 W/m² -
1788529748 25.56° C 93% 1016.1 hPa 0 mm - 212 W/m² -
1788529448 25.56° C 93% 1015.8 hPa 0 mm - 200 W/m² -
1788529164 25.56° C 94% 1015.7 hPa 0 mm - 159 W/m² -
1788528838 25.56° C 93% 1015.9 hPa 0 mm - 140 W/m² -
1788528533 25° C 94% 1015.9 hPa 0 mm - 127 W/m² -
1788528228 25° C 94% 1015.9 hPa 0 mm - 118 W/m² -
1788527928 25° C 94% 1015.8 hPa 0 mm - 115 W/m² -
1788527623 24.44° C 95% 1016.2 hPa 0 mm - 108 W/m² -
1788527318 24.44° C 96% 1015.4 hPa 0 mm - 89 W/m² -
1788527017 24.44° C 98% 1015.9 hPa 0 mm - 78 W/m² -
1788526712 23.89° C 99% 1015.4 hPa 0 mm - 98 W/m² -
1788526409 23.89° C 99% 1015.3 hPa 0 mm - 110 W/m² -
1788526108 23.33° C 99% 1015.3 hPa 0 mm - 89 W/m² -
1788525805 22.78° C 99% 1015.2 hPa 0 mm - 79 W/m² -
1788525505 22.78° C 99% 1015.2 hPa 0 mm - 66 W/m² -
1788525200 22.22° C 99% 1015.1 hPa 0 mm - 62 W/m² -
1788524895 22.22° C 99% 1015.2 hPa 0 mm - 51 W/m² -
1788524595 22.22° C 99% 1015.5 hPa 0 mm - 39 W/m² -
1788524290 22.22° C 99% 1015.3 hPa 0 mm - 37 W/m² -
1788523986 22.22° C 99% 1015.4 hPa 0 mm - 35 W/m² -
1788523683 22.22° C 99% 1015.3 hPa 0 mm - 34 W/m² -
1788523378 22.22° C 99% 1015.3 hPa 0 mm - 29 W/m² -
1788523073 21.67° C 99% 1015.2 hPa 0 mm - 26 W/m² -

* Rain latest hour (hover to see other rain measurements)
** Current wind speed in m/s (hover to see current wind gust speed)